This is the latest recevied weather packets stored in our database for station/object WC4PEM-9. If no packets are shown the sender has not sent any weather packets the latest 1 day(s).
| Time | Temp. | Humidity | Pressure | Rain* | Wind** | Luminosity | Snow |
|---|---|---|---|---|---|---|---|
| 1778021862 | 28.33° C | 58% | 1013.9 hPa | 0 mm | 0.89 m/s, 113° | - | - |
| 1778021607 | 28.33° C | 58% | 1013.9 hPa | 0 mm | 0.89 m/s, 113° | - | - |
| 1778021307 | 28.33° C | 56% | 1013.9 hPa | 0 mm | 0.89 m/s, 44° | - | - |
| 1778021007 | 28.89° C | 56% | 1013.8 hPa | 0 mm | 0.89 m/s, 140° | - | - |
| 1778020707 | 28.89° C | 56% | 1013.9 hPa | 0 mm | 0.89 m/s, 120° | - | - |
| 1778020407 | 28.89° C | 54% | 1013.8 hPa | 0 mm | 1.34 m/s, 131° | - | - |
| 1778020107 | 28.89° C | 55% | 1013.8 hPa | 0 mm | 1.34 m/s, 104° | - | - |
| 1778019807 | 29.44° C | 54% | 1013.8 hPa | 0 mm | 1.79 m/s, 153° | - | - |
| 1778019507 | 29.44° C | 53% | 1013.5 hPa | 0 mm | 2.24 m/s, 160° | - | - |
| 1778019392 | 30° C | 52% | 1013.7 hPa | 0 mm | 2.24 m/s, 165° | - | - |
| 1778019207 | 30° C | 52% | 1013.7 hPa | 0 mm | 2.24 m/s, 165° | - | - |
| 1778018907 | 30° C | 51% | 1013.8 hPa | 0 mm | 1.79 m/s, 115° | - | - |
| 1778018607 | 30.56° C | 48% | 1013.8 hPa | 0 mm | 0.89 m/s, 140° | - | - |
| 1778018307 | 30.56° C | 48% | 1013.7 hPa | 0 mm | 0.89 m/s, 61° | - | - |
| 1778018007 | 30.56° C | 48% | 1013.8 hPa | 0 mm | 1.79 m/s, 93° | - | - |
| 1778017707 | 30.56° C | 49% | 1013.8 hPa | 0 mm | 1.79 m/s, 113° | - | - |
| 1778017407 | 30.56° C | 47% | 1013.8 hPa | 0 mm | 1.34 m/s, 76° | - | - |
| 1778017107 | 30.56° C | 48% | 1013.7 hPa | 0 mm | 1.34 m/s, 20° | - | - |
| 1778016914 | 30.56° C | 50% | 1013.5 hPa | 0 mm | 1.34 m/s, 160° | - | - |
| 1778016807 | 30.56° C | 50% | 1013.5 hPa | 0 mm | 1.34 m/s, 160° | - | - |
| 1778016634 | 30.56° C | 51% | 1013.6 hPa | 0 mm | 1.79 m/s, 151° | - | - |
| 1778016507 | 30.56° C | 51% | 1013.6 hPa | 0 mm | 1.79 m/s, 151° | - | - |
| 1778016207 | 30.56° C | 49% | 1013.7 hPa | 0 mm | 2.24 m/s, 144° | - | - |
| 1778015907 | 30.56° C | 48% | 1013.7 hPa | 0 mm | 2.24 m/s, 20° | - | - |
| 1778015790 | 30.56° C | 47% | 1013.4 hPa | 0 mm | 1.34 m/s, 111° | - | - |
* Rain latest hour (hover to see other rain measurements)
** Current wind speed in m/s (hover to see current wind gust speed)